Location: Manchester NH
(43.0000°N, 71.5000°W)
Time: 17:08:16
(UTC-04:00)

Envisat - Pass Details

Date: 22 April 2019
Orbit: 764 x 766 km, 98.2° (Epoch: 26 May)

Event Time Altitude Azimuth Distance (km) Brightness Sun altitude
Rises 20:27:27 0° 206° (SSW) 3,220 6.2 -9.4°
Reaches altitude 10° 20:30:23 10° 224° (SW) 2,299 5.7 -9.9°
Maximum altitude 20:33:57 19° 269° (W) 1,760 5.8 -10.5°
Drops below altitude 10° 20:37:32 10° 314° (NW) 2,311 6.9 -11.1°
Sets 20:40:31 0° 332° (NNW) 3,243 7.3 -11.6°
